Regional Weather Roundup
Issued by NWS

Home | Current Version | Previous Version | Graphics & Text | Print | Product List | Glossary On
Versions: 1 2 3 4 5 6 7 8 9 10 11 12 13 14 15 16 17 18 19 20 21 22 23 24 25 26 27 28 29 30 31 32 33 34 35 36 37 38 39 40 41 42 43 44 45 46 47 48 49 50
243
ASUS44 KJAN 311003
RWRMS

MISSISSIPPI HOURLY WEATHER ROUNDUP
NATIONAL WEATHER SERVICE JACKSON MS
400 AM CST SAT JAN 31 2015

NOTE: "FAIR: INDICATES FEW OR NO CLOUDS BELOW 12,000 FEET WITH NO
SIGNIFICANT WEATHER AND/OR OBSTRUCTIONS TO VISIBILITY.

MSZ001>002-007>008-010>013-018>021-025>028-034>036-311100-
NORTHWEST MISSISSIPPI

CITY           SKY/WX    TMP DP  RH WIND       PRES   REMARKS
CLARKSDALE     FAIR      36  32  87 NE3       30.38F
CLEVELAND      FAIR      36  31  83 NE5       30.36S WCI  32
GREENWOOD      PTCLDY    30  27  88 CALM      30.36F
GREENVILLE     PTCLDY    34  28  79 NE7       30.35S WCI  28
GRENADA        FAIR      32  28  86 CALM      30.38S
OLIVE BRANCH   CLEAR     34  27  75 CALM      30.37F
OXFORD         FAIR      36  21  55 E5        30.38F WCI  32
TUNICA         CLOUDY    36  30  80 CALM      30.38S
$$

MSZ003>006-009-014>017-022>024-029>033-037>039-311100-
NORTHEAST MISSISSIPPI

CITY           SKY/WX    TMP DP  RH WIND       PRES   REMARKS
COLUMBUS AFB   CLOUDY    30  26  86 CALM      30.37S
CORINTH        FAIR      32  28  86 CALM      30.36F
GOLDN TRIANGLE PTCLDY    30  25  80 N3        30.35S
STARKVILLE     FAIR      30  28  93 CALM      30.37S
TUPELO         CLOUDY    32  25  75 NE3       30.37F
$$

MSZ040-058-311100-
CENTRAL MISSISSIPPI

CITY           SKY/WX    TMP DP  RH WIND       PRES   REMARKS
JACKSON INTL   CLEAR     32  28  85 CALM      30.33F
JACKSON HAWKNS CLEAR     38  28  67 E5        30.33F WCI  34
MERIDIAN KEY   CLEAR     30  26  85 N3        30.34S
MERIDIAN NAS   CLEAR     29  26  89 CALM      30.35S
RAYMOND        FAIR      32  27  80 MISG      30.33F
VICKSBURG      MOCLDY    39  31  72 NE3       30.34S
$$

MSZ059>079-311100-
SOUTH MISSISSIPPI

CITY           SKY/WX    TMP DP  RH WIND       PRES   REMARKS
BROOKHAVEN     FAIR      37  32  81 CALM      30.31F
HATTIESBURG    CLEAR     32  29  88 CALM      30.33F
MCCOMB         CLEAR     39  28  64 E7        30.29F WCI  34
NATCHEZ        PTCLDY    39  30  70 E6        30.30S WCI  35
PINE BELT      CLEAR     34  27  75 NE3       30.32F
$$

MSZ080>082-311100-
COASTAL MISSISSIPPI

CITY           SKY/WX    TMP DP  RH WIND       PRES   REMARKS
BILOXI         PTCLDY    39  32  76 NE8       30.31F WCI  34
PASCAGOULA     PTCLDY    32  30  92 CALM      30.32S FOG
GULFPORT       CLEAR     40  30  67 NE6       30.30F
$$



USA.gov is the U.S. government's official web portal to all federal, state and local government web resources and services.